STARLINK-36926, 67999

Orbit data source: Space-Track

STARLINK-36926, 67999 is a payload satellite owned by SpaceX/Seattle (US) in LEO that was launched on Fri, 27 Feb 2026 UTC via an FALCON 9 launch vehicle from the Air Force Eastern Test Range (AFETR). Payload-class satellites include a variety of spacecraft equipped with specific instruments for various scientific and technological missions. These include communications satellites like Starlink; space stations such as the ISS; scientific satellites like the Hubble; Earth observation satellites from companies like Planet Labs, Umbra, and HawkEye 360; GPS; miniature CubeSats for education and research; and military/defense satellites.

Loading next visibility...
Identifier
67999, 2026-039P
Orbit
LEO
Country
Flag of USUS
Related business
Manufacturer
SpaceX/Seattle
Mission
Operational Commercial Communications
Bus & Motor
STARLINK V2MO, Unknown motor
Mass
575 kg wet, ~530 kg dry
Launch date (UTC)
2026-02-27 (2 months ago)
Launch vehicle
FALCON 9
Launch site
Air Force Eastern Test Range (AFETR)
Object type
Payload
Rocket body
Debris
Shape & HBR
Box + 2 Pan, 17.7 m
Radar Cross Section
36.964 m²

Expand to show TLE details & history
Last TLE update: 8 hours ago

TLE from 8 hours ago
0 STARLINK-36926
1 67999U 26039P   26119.46639647  .00017960  00000-0  66047-3 0  9993
2 67999  43.0030 121.7732 0001595 277.8484  82.2186 15.27586065  9477
Epoch: 2026-04-29T11:11Z
TLE epoch observation values (Epoch: 2026-04-29T11:11:36.655Z)
Latitude
-0.00004°
Longitude
96.44348°
Altitude
482.659 km
Speed
7.626 km/s
True Right ascension
08h 07m 05s
True Declination
0° 00' 00"
Sunlit
Object was in daylight at epoch
Visualization orbit readout
Latitude
Unknown
Longitude
Unknown
Altitude
Unknown
Speed
Unknown
Apparent Right ascension
Unknown
Apparent Declination
Unknown
Sunlit
N/A
Visualization observer readout
Local Sidereal Time
02:19:49
Azimuth
Unknown
Elevation
Unknown
Doppler factor
Unknown
Orbital elements
Apogee altitude
486.07 km
Perigee altitude
483.881 km
Semi-major axis
6,863.113 km
Eccentricity
0.00016
Inclination
43.003°
RAAN
121.7732°
Arg. of periapsis
277.8484°
True anomaly
82.23671°
Mean anomaly
82.2186°
Eccentric anomaly
82.22765°
Mean motion
3.81735 °/min
Orbital period
94.31 mins
BSTAR
0.00066047
Loading maneuver chart data...
Computing Atmospheric mass density...
Loading historical data...
Loading historical data...
Loading historical data...
Loading historical data...
Loading historical data...
Loading historical data...
Loading historical data...

Documentation

Showing up to 5 results
|